contact:dominique.lefevre@mio.osupytheas.fr, maurice.libes@osupytheas.fr, didier.mallarino@osupytheas.fr
Project:EMSO http://www.emso-fr.org/EMSO-France
Depth: 2436.0 m
Title:EMSO Ligure Ouest : Data MII capteur AQUADOPP
Date,Latitude,Longitude,X_East,Y_North,Z_Up,Amplitude_X,Amplitude_Y,Amplitude_Z,Batterie,SoundSpeed,Heading,Pitch,Roll,Pressure,TIS,Speed,Direction
, degrees North, degrees East, m.s-1, m.s-1,m.s-1, 1, 1, 1, Volt, m.s-1, degree, degree, degree, dbar, degree_C, m.s-1, degree
2022-01-18T00:04:03,42.805,6.029,0.059,-0.005,0.033,101.0,102.0,100.0,13.4,1505.2,324.5,-0.7,1.8,2470.395,13.28,0.059,94.8
2022-01-18T00:07:03,42.805,6.029,0.048,-0.029,-0.014,101.0,101.0,100.0,13.3,1505.2,328.7,-0.8,1.8,2470.402,13.28,0.056,121.1
2022-01-18T00:10:03,42.805,6.029,0.052,-0.022,-0.025,103.0,102.0,100.0,13.4,1505.2,326.5,-0.8,1.8,2470.412,13.28,0.056,112.9
2022-01-18T00:13:03,42.805,6.029,0.054,-0.041,-0.015,101.0,102.0,100.0,13.3,1505.2,325.8,-0.8,1.8,2470.38,13.28,0.067,127.2
2022-01-18T00:16:03,42.805,6.029,0.018,-0.019,-0.011,102.0,101.0,101.0,13.4,1505.2,329.0,-0.8,1.8,2470.389,13.28,0.026,136.5
2022-01-18T00:19:03,42.805,6.029,0.043,-0.018,-0.005,101.0,102.0,100.0,13.4,1505.2,326.3,-0.7,1.8,2470.364,13.28,0.046,112.7
2022-01-18T00:22:03,42.805,6.029,0.025,-0.026,-0.005,101.0,103.0,101.0,13.4,1505.2,325.9,-0.8,1.8,2470.388,13.28,0.036,136.1
2022-01-18T00:25:03,42.805,6.029,0.043,-0.017,0.01,102.0,101.0,101.0,13.4,1505.2,325.3,-0.8,1.8,2470.361,13.28,0.046,111.6
2022-01-18T00:28:03,42.805,6.029,0.026,-0.011,-0.026,100.0,103.0,100.0,13.4,1505.2,329.5,-0.8,1.8,2470.418,13.28,0.028,112.9
2022-01-18T00:31:03,42.805,6.029,0.02,-0.004,-0.018,102.0,102.0,100.0,13.4,1505.2,325.9,-0.7,1.8,2470.399,13.28,0.02,101.3
2022-01-18T00:34:03,42.805,6.029,0.024,-0.019,-0.021,100.0,102.0,102.0,13.4,1505.2,325.5,-0.8,1.8,2470.4,13.28,0.03,128.4
2022-01-18T00:37:03,42.805,6.029,0.035,-0.043,-0.041,101.0,102.0,101.0,13.4,1505.2,324.8,-0.8,1.8,2470.387,13.28,0.055,140.9
2022-01-18T00:40:03,42.805,6.029,0.027,-0.006,0.006,101.0,103.0,101.0,13.4,1505.2,329.9,-0.8,1.8,2470.403,13.28,0.027,102.5
2022-01-18T00:43:03,42.805,6.029,0.048,-0.037,-0.008,102.0,103.0,101.0,13.3,1505.2,330.3,-0.7,1.8,2470.398,13.28,0.06,127.6
2022-01-18T00:46:03,42.805,6.029,0.062,-0.028,0.011,101.0,102.0,101.0,13.4,1505.2,324.5,-0.7,1.8,2470.409,13.28,0.068,114.3
2022-01-18T00:49:03,42.805,6.029,-0.001,-0.005,0.026,101.0,103.0,101.0,13.4,1505.2,324.9,-0.7,1.9,2470.445,13.28,0.005,191.3
2022-01-18T00:52:03,42.805,6.029,0.053,-0.033,0.014,102.0,103.0,101.0,13.3,1505.2,328.2,-0.8,1.8,2470.432,13.28,0.062,121.9
2022-01-18T00:55:03,42.805,6.029,0.039,-0.024,-0.002,103.0,102.0,101.0,13.4,1505.2,325.0,-0.8,1.8,2470.412,13.28,0.045,121.6
2022-01-18T00:58:03,42.805,6.029,0.026,-0.025,-0.024,101.0,103.0,101.0,13.3,1505.2,326.6,-0.7,1.8,2470.458,13.28,0.036,133.9
2022-01-18T01:04:03,42.805,6.029,0.035,-0.019,-0.021,103.0,103.0,102.0,13.4,1505.2,329.4,-0.7,1.8,2470.426,13.28,0.039,118.5
2022-01-18T01:07:03,42.805,6.029,0.018,-0.007,-0.002,102.0,102.0,100.0,13.4,1505.2,325.3,-0.8,1.8,2470.418,13.28,0.019,111.2
2022-01-18T01:10:03,42.805,6.029,0.038,-0.026,-0.01,101.0,103.0,100.0,13.3,1505.2,326.3,-0.8,1.8,2470.44,13.28,0.046,124.4
2022-01-18T01:13:03,42.805,6.029,0.039,-0.019,0.002,102.0,102.0,101.0,13.4,1505.2,324.2,-0.7,1.8,2470.445,13.28,0.043,116.0
2022-01-18T01:16:03,42.805,6.029,0.049,-0.01,0.005,102.0,102.0,100.0,13.4,1505.2,326.6,-0.8,1.8,2470.427,13.28,0.05,101.5
2022-01-18T01:19:03,42.805,6.029,0.047,-0.031,0.026,101.0,103.0,100.0,13.4,1505.2,324.7,-0.8,1.8,2470.443,13.28,0.056,123.4
2022-01-18T01:22:03,42.805,6.029,0.056,-0.032,0.0,101.0,102.0,102.0,13.4,1505.2,325.7,-0.8,1.8,2470.422,13.28,0.064,119.7
2022-01-18T01:25:03,42.805,6.029,0.042,-0.019,-0.003,101.0,101.0,100.0,13.4,1505.2,326.1,-0.7,1.8,2470.46,13.28,0.046,114.3
2022-01-18T01:28:03,42.805,6.029,0.065,-0.034,0.007,101.0,103.0,99.0,13.3,1505.2,331.3,-0.8,1.8,2470.393,13.28,0.073,117.6
2022-01-18T01:31:03,42.805,6.029,0.034,-0.02,0.032,102.0,102.0,101.0,13.4,1505.2,330.8,-0.7,1.8,2470.461,13.28,0.039,120.5
2022-01-18T01:34:03,42.805,6.029,0.049,-0.02,0.005,101.0,102.0,101.0,13.4,1505.2,329.1,-0.7,1.8,2470.438,13.28,0.052,112.2
2022-01-18T01:37:03,42.805,6.029,0.03,-0.01,0.031,102.0,103.0,100.0,13.4,1505.2,329.2,-0.7,1.8,2470.431,13.28,0.031,108.4
2022-01-18T01:40:03,42.805,6.029,0.036,-0.055,-0.004,102.0,102.0,100.0,13.4,1505.2,330.5,-0.8,1.8,2470.422,13.28,0.065,146.8
2022-01-18T01:43:03,42.805,6.029,0.066,-0.02,0.019,101.0,100.0,100.0,13.4,1505.2,324.0,-0.8,1.8,2470.432,13.28,0.068,106.9
2022-01-18T01:46:03,42.805,6.029,0.04,-0.017,0.014,102.0,101.0,101.0,13.3,1505.2,325.4,-0.7,1.8,2470.435,13.28,0.043,113.0
2022-01-18T01:49:03,42.805,6.029,0.061,-0.024,0.049,102.0,101.0,101.0,13.4,1505.2,328.4,-0.8,1.8,2470.411,13.28,0.065,111.5
2022-01-18T01:52:03,42.805,6.029,0.026,-0.017,-0.02,101.0,102.0,101.0,13.4,1505.2,330.6,-0.7,1.8,2470.382,13.28,0.031,123.2
2022-01-18T01:55:03,42.805,6.029,0.058,-0.023,0.007,100.0,101.0,101.0,13.4,1505.2,324.2,-0.7,1.8,2470.439,13.28,0.062,111.6
2022-01-18T01:58:03,42.805,6.029,0.042,-0.022,0.035,101.0,101.0,100.0,13.4,1505.2,331.1,-0.7,1.8,2470.451,13.28,0.047,117.6
2022-01-18T02:04:03,42.805,6.029,0.031,-0.021,-0.011,102.0,102.0,101.0,13.3,1505.2,325.4,-0.7,1.8,2470.475,13.28,0.037,124.1
2022-01-18T02:07:03,42.805,6.029,0.057,-0.024,-0.003,101.0,101.0,101.0,13.4,1505.2,330.9,-0.7,1.8,2470.442,13.28,0.061,112.8
2022-01-18T02:10:03,42.805,6.029,0.045,-0.028,-0.004,102.0,102.0,101.0,13.4,1505.2,324.4,-0.7,1.9,2470.409,13.28,0.053,121.9
2022-01-18T02:13:03,42.805,6.029,0.042,-0.023,-0.013,101.0,102.0,101.0,13.4,1505.2,329.6,-0.8,1.8,2470.416,13.28,0.047,118.7
2022-01-18T02:16:03,42.805,6.029,0.064,-0.024,-0.002,102.0,101.0,101.0,13.4,1505.2,329.0,-0.7,1.8,2470.43,13.28,0.068,110.6
2022-01-18T02:19:03,42.805,6.029,0.015,-0.029,-0.005,100.0,102.0,102.0,13.4,1505.2,323.7,-0.8,1.8,2470.474,13.28,0.032,152.6
2022-01-18T02:22:03,42.805,6.029,0.026,-0.009,-0.009,101.0,103.0,100.0,13.4,1505.2,324.5,-0.8,1.8,2470.424,13.28,0.027,109.1
2022-01-18T02:25:03,42.805,6.029,0.043,-0.021,-0.002,102.0,102.0,100.0,13.3,1505.2,327.4,-0.8,1.8,2470.529,13.28,0.047,116.0
2022-01-18T02:28:03,42.805,6.029,0.054,-0.027,0.03,101.0,101.0,100.0,13.3,1505.2,327.0,-0.7,1.8,2470.489,13.28,0.06,116.6
2022-01-18T02:31:03,42.805,6.029,0.04,-0.019,-0.015,100.0,102.0,101.0,13.4,1505.2,327.1,-0.7,1.8,2470.431,13.28,0.044,115.4
2022-01-18T02:34:03,42.805,6.029,0.034,-0.029,-0.019,101.0,101.0,101.0,13.4,1505.2,326.0,-0.8,1.8,2470.491,13.28,0.044,130.5
2022-01-18T02:37:03,42.805,6.029,0.032,-0.033,-0.015,103.0,101.0,101.0,13.4,1505.2,328.0,-0.8,1.8,2470.47,13.28,0.045,135.9
2022-01-18T02:40:03,42.805,6.029,0.037,-0.006,-0.046,101.0,102.0,101.0,13.3,1505.2,326.3,-0.8,1.8,2470.503,13.28,0.037,99.2
2022-01-18T02:43:03,42.805,6.029,0.067,-0.036,0.011,100.0,102.0,100.0,13.4,1505.2,325.4,-0.7,1.8,2470.514,13.28,0.076,118.3
2022-01-18T02:46:03,42.805,6.029,0.054,-0.03,0.012,102.0,101.0,101.0,13.3,1505.2,326.7,-0.8,1.8,2470.506,13.28,0.061,119.1
2022-01-18T02:49:03,42.805,6.029,0.048,-0.017,0.008,102.0,102.0,101.0,13.3,1505.2,326.3,-0.7,1.8,2470.484,13.28,0.05,109.5
2022-01-18T02:52:03,42.805,6.029,0.034,-0.021,0.021,102.0,102.0,101.0,13.4,1505.2,327.3,-0.8,1.9,2470.52,13.28,0.039,121.7
2022-01-18T02:55:03,42.805,6.029,0.054,-0.028,-0.015,102.0,105.0,101.0,13.4,1505.2,324.1,-0.8,1.8,2470.545,13.28,0.06,117.4
2022-01-18T02:58:03,42.805,6.029,0.032,-0.026,-0.02,101.0,101.0,101.0,13.4,1505.2,327.1,-0.7,1.8,2470.546,13.28,0.041,129.1
2022-01-18T03:04:03,42.805,6.029,0.067,-0.025,-0.007,102.0,102.0,101.0,13.3,1505.2,329.1,-0.7,1.8,2470.577,13.28,0.071,110.5
2022-01-18T03:07:03,42.805,6.029,0.045,-0.011,0.015,102.0,103.0,100.0,13.3,1505.2,329.5,-0.8,1.8,2470.587,13.28,0.046,103.7
2022-01-18T03:10:03,42.805,6.029,0.041,-0.006,0.0,102.0,99.0,101.0,13.3,1505.2,326.5,-0.8,1.8,2470.55,13.28,0.041,98.3
2022-01-18T03:13:03,42.805,6.029,0.055,-0.02,-0.031,101.0,103.0,101.0,13.3,1505.2,327.1,-0.7,1.8,2470.606,13.28,0.058,110.0
2022-01-18T03:16:03,42.805,6.029,0.077,-0.03,0.001,103.0,100.0,100.0,13.3,1505.2,328.9,-0.8,1.8,2470.58,13.28,0.082,111.3
2022-01-18T03:19:03,42.805,6.029,0.039,-0.033,-0.003,103.0,101.0,100.0,13.4,1505.2,327.9,-0.7,1.8,2470.547,13.28,0.051,130.2
2022-01-18T03:22:03,42.805,6.029,0.026,-0.02,-0.028,103.0,101.0,101.0,13.4,1505.2,325.9,-0.8,1.8,2470.55,13.28,0.032,127.6
2022-01-18T03:25:03,42.805,6.029,0.048,-0.012,-0.001,101.0,102.0,101.0,13.4,1505.2,329.6,-0.7,1.9,2470.609,13.28,0.049,104.0
2022-01-18T03:28:03,42.805,6.029,0.053,-0.022,-0.012,101.0,103.0,100.0,13.3,1505.2,328.8,-0.7,1.8,2470.654,13.28,0.057,112.5
2022-01-18T03:31:03,42.805,6.029,0.063,-0.016,-0.022,102.0,101.0,101.0,13.4,1505.2,326.8,-0.8,1.8,2470.57,13.28,0.064,104.2
2022-01-18T03:34:03,42.805,6.029,0.046,-0.028,-0.034,103.0,102.0,99.0,13.4,1505.2,326.4,-0.8,1.9,2470.581,13.28,0.053,121.3
2022-01-18T03:37:03,42.805,6.029,0.048,-0.035,-0.021,103.0,99.0,101.0,13.3,1505.2,328.7,-0.8,1.8,2470.609,13.28,0.059,126.1
2022-01-18T03:40:03,42.805,6.029,0.058,-0.012,-0.018,99.0,102.0,101.0,13.3,1505.2,324.2,-0.7,1.9,2470.625,13.28,0.059,101.7
2022-01-18T03:43:03,42.805,6.029,0.04,-0.028,-0.024,102.0,100.0,101.0,13.3,1505.2,325.1,-0.8,1.8,2470.62,13.28,0.048,125.0
2022-01-18T03:46:03,42.805,6.029,0.055,-0.018,-0.011,101.0,102.0,101.0,13.4,1505.2,327.1,-0.7,1.8,2470.609,13.28,0.057,108.1
2022-01-18T03:49:03,42.805,6.029,0.06,-0.02,0.009,100.0,102.0,101.0,13.4,1505.2,327.1,-0.7,1.8,2470.665,13.28,0.063,108.4
2022-01-18T03:52:03,42.805,6.029,0.046,-0.009,-0.02,102.0,101.0,101.0,13.4,1505.2,326.3,-0.7,1.8,2470.599,13.28,0.046,101.1
2022-01-18T03:55:03,42.805,6.029,0.073,-0.032,0.011,101.0,101.0,101.0,13.3,1505.2,327.7,-0.7,1.8,2470.678,13.28,0.079,113.7
2022-01-18T03:58:03,42.805,6.029,0.069,-0.037,0.002,101.0,100.0,101.0,13.4,1505.2,325.8,-0.7,1.8,2470.659,13.28,0.078,118.2
2022-01-18T04:04:03,42.805,6.029,0.056,-0.031,-0.006,101.0,101.0,100.0,13.4,1505.2,327.1,-0.7,1.8,2470.69,13.28,0.064,119.0
2022-01-18T04:07:03,42.805,6.029,0.057,-0.023,0.0,101.0,101.0,101.0,13.4,1505.2,324.0,-0.7,1.8,2470.657,13.28,0.061,112.0
2022-01-18T04:10:03,42.805,6.029,0.044,-0.04,-0.036,102.0,102.0,100.0,13.3,1505.2,331.3,-0.7,1.8,2470.664,13.28,0.059,132.3
2022-01-18T04:13:03,42.805,6.029,0.062,-0.024,-0.009,101.0,101.0,101.0,13.4,1505.2,328.5,-0.8,1.9,2470.643,13.28,0.066,111.2
2022-01-18T04:16:03,42.805,6.029,0.053,-0.025,-0.026,102.0,101.0,99.0,13.4,1505.2,331.4,-0.8,1.8,2470.613,13.28,0.058,115.3
2022-01-18T04:19:03,42.805,6.029,0.051,-0.03,-0.035,102.0,102.0,100.0,13.4,1505.2,325.6,-0.7,1.9,2470.666,13.28,0.059,120.5
2022-01-18T04:22:03,42.805,6.029,0.045,-0.035,-0.036,100.0,101.0,101.0,13.3,1505.2,324.2,-0.8,1.8,2470.669,13.28,0.057,127.9
2022-01-18T04:25:03,42.805,6.029,0.053,-0.023,-0.023,101.0,100.0,101.0,13.4,1505.2,324.5,-0.8,1.8,2470.687,13.28,0.057,113.5
2022-01-18T04:28:03,42.805,6.029,0.053,-0.037,0.009,101.0,101.0,101.0,13.3,1505.2,329.6,-0.8,1.8,2470.627,13.28,0.064,124.9
2022-01-18T04:31:03,42.805,6.029,0.048,-0.021,-0.027,102.0,102.0,100.0,13.4,1505.2,326.8,-0.8,1.9,2470.65,13.28,0.052,113.6
2022-01-18T04:34:03,42.805,6.029,0.055,-0.018,-0.011,101.0,101.0,101.0,13.4,1505.2,327.2,-0.8,1.8,2470.703,13.28,0.057,108.1
2022-01-18T04:37:03,42.805,6.029,0.039,-0.001,-0.019,101.0,102.0,100.0,13.4,1505.2,323.3,-0.8,1.8,2470.662,13.28,0.039,91.5
2022-01-18T04:40:03,42.805,6.029,0.049,-0.039,-0.033,102.0,101.0,100.0,13.4,1505.2,325.0,-0.7,1.8,2470.657,13.28,0.062,128.5
2022-01-18T04:43:03,42.805,6.029,0.037,-0.019,-0.017,102.0,100.0,101.0,13.4,1505.2,326.5,-0.7,1.8,2470.656,13.28,0.041,117.2
2022-01-18T04:46:03,42.805,6.029,0.042,-0.028,-0.013,101.0,100.0,101.0,13.4,1505.2,329.9,-0.7,1.8,2470.665,13.28,0.05,123.7
2022-01-18T04:49:03,42.805,6.029,0.057,-0.036,-0.052,102.0,101.0,101.0,13.3,1505.2,327.0,-0.8,1.8,2470.664,13.28,0.067,122.3
2022-01-18T04:52:03,42.805,6.029,0.044,-0.04,-0.008,102.0,101.0,100.0,13.3,1505.2,329.7,-0.8,1.8,2470.698,13.28,0.059,132.3
2022-01-18T04:55:03,42.805,6.029,0.037,-0.015,-0.047,100.0,102.0,101.0,13.4,1505.2,330.4,-0.8,1.9,2470.68,13.28,0.039,112.1
2022-01-18T04:58:03,42.805,6.029,0.055,-0.026,-0.001,101.0,102.0,101.0,13.3,1505.2,330.6,-0.8,1.9,2470.681,13.28,0.06,115.3
2022-01-18T05:04:03,42.805,6.029,0.055,-0.021,0.007,102.0,102.0,100.0,13.3,1505.2,326.7,-0.8,1.8,2470.72,13.28,0.058,110.9
2022-01-18T05:07:03,42.805,6.029,0.05,-0.037,-0.023,101.0,100.0,101.0,13.4,1505.2,328.6,-0.8,1.8,2470.697,13.28,0.062,126.5
2022-01-18T05:10:03,42.805,6.029,0.046,-0.032,-0.058,101.0,101.0,100.0,13.4,1505.2,328.7,-0.8,1.8,2470.755,13.28,0.056,124.8
2022-01-18T05:13:03,42.805,6.029,0.058,-0.02,0.016,103.0,101.0,101.0,13.4,1505.2,330.3,-0.7,1.8,2470.739,13.28,0.061,109.0
2022-01-18T05:16:03,42.805,6.029,0.06,-0.024,0.007,102.0,100.0,101.0,13.4,1505.2,327.7,-0.8,1.9,2470.768,13.28,0.064,111.8
2022-01-18T05:19:03,42.805,6.029,0.028,-0.02,-0.006,101.0,100.0,100.0,13.3,1505.2,328.8,-0.7,1.8,2470.784,13.28,0.034,125.5
2022-01-18T05:22:03,42.805,6.029,0.032,-0.019,0.002,103.0,99.0,101.0,13.3,1505.2,325.8,-0.8,1.9,2470.743,13.28,0.037,120.7
2022-01-18T05:25:03,42.805,6.029,0.05,-0.029,-0.019,101.0,101.0,101.0,13.4,1505.2,325.7,-0.8,1.8,2470.764,13.28,0.057,120.1
2022-01-18T05:28:03,42.805,6.029,0.017,-0.026,-0.019,101.0,102.0,101.0,13.4,1505.2,330.3,-0.8,1.8,2470.746,13.28,0.031,146.8
2022-01-18T05:31:03,42.805,6.029,0.029,-0.019,-0.011,102.0,100.0,101.0,13.4,1505.2,331.0,-0.7,1.8,2470.791,13.28,0.034,123.2
2022-01-18T05:34:03,42.805,6.029,0.046,-0.02,0.004,102.0,102.0,101.0,13.4,1505.2,325.4,-0.8,1.8,2470.758,13.28,0.05,113.5
2022-01-18T05:37:03,42.805,6.029,0.04,-0.042,-0.026,102.0,102.0,101.0,13.4,1505.2,324.3,-0.8,1.8,2470.785,13.28,0.057,136.4
2022-01-18T05:40:03,42.805,6.029,0.027,-0.008,-0.031,102.0,101.0,100.0,13.4,1505.2,326.5,-0.8,1.8,2470.734,13.28,0.028,106.5
2022-01-18T05:43:03,42.805,6.029,0.045,-0.024,-0.005,101.0,102.0,100.0,13.4,1505.2,324.0,-0.8,1.8,2470.774,13.28,0.051,118.1
2022-01-18T05:46:03,42.805,6.029,0.044,-0.034,-0.013,101.0,101.0,100.0,13.4,1505.2,329.6,-0.7,1.8,2470.78,13.28,0.055,127.7
2022-01-18T05:49:03,42.805,6.029,0.053,-0.019,-0.012,102.0,102.0,100.0,13.4,1505.2,329.7,-0.8,1.8,2470.787,13.28,0.056,109.7
2022-01-18T05:52:03,42.805,6.029,0.021,-0.037,-0.046,101.0,102.0,101.0,13.4,1505.2,329.0,-0.7,1.8,2470.77,13.28,0.042,150.4
2022-01-18T05:55:03,42.805,6.029,0.048,-0.024,0.019,101.0,101.0,100.0,13.4,1505.2,327.3,-0.8,1.8,2470.815,13.28,0.053,116.6
2022-01-18T05:58:03,42.805,6.029,0.01,-0.011,-0.001,101.0,101.0,101.0,13.4,1505.2,323.1,-0.8,1.8,2470.778,13.28,0.014,137.7
2022-01-18T06:04:03,42.805,6.029,0.028,-0.03,0.001,102.0,101.0,100.0,13.3,1505.2,326.7,-0.8,1.8,2470.808,13.28,0.041,137.0
2022-01-18T06:07:03,42.805,6.029,0.014,-0.022,-0.01,102.0,101.0,100.0,13.4,1505.2,324.3,-0.8,1.8,2470.83,13.28,0.026,147.5
2022-01-18T06:10:03,42.805,6.029,0.036,-0.006,0.009,102.0,103.0,100.0,13.4,1505.2,328.0,-0.8,1.8,2470.858,13.28,0.036,99.5
2022-01-18T06:13:03,42.805,6.029,0.056,-0.037,-0.004,101.0,101.0,101.0,13.4,1505.2,325.6,-0.8,1.8,2470.85,13.28,0.067,123.5
2022-01-18T06:16:03,42.805,6.029,0.051,-0.022,0.014,100.0,101.0,102.0,13.4,1505.2,326.6,-0.8,1.9,2470.79,13.28,0.055,113.3
2022-01-18T06:19:03,42.805,6.029,0.036,-0.026,-0.039,101.0,101.0,101.0,13.4,1505.2,328.6,-0.8,1.8,2470.799,13.28,0.044,125.8
2022-01-18T06:22:03,42.805,6.029,0.03,-0.012,0.001,101.0,101.0,101.0,13.4,1505.2,329.7,-0.8,1.8,2470.79,13.28,0.032,111.8
2022-01-18T06:25:03,42.805,6.029,0.015,-0.045,-0.02,102.0,101.0,100.0,13.4,1505.2,328.8,-0.7,1.8,2470.788,13.28,0.047,161.6
2022-01-18T06:28:03,42.805,6.029,0.039,-0.011,0.017,102.0,102.0,101.0,13.3,1505.2,324.7,-0.8,1.8,2470.782,13.28,0.04,105.7
2022-01-18T06:31:03,42.805,6.029,0.024,-0.031,-0.01,101.0,102.0,101.0,13.4,1505.2,328.1,-0.7,1.8,2470.76,13.28,0.039,142.3
2022-01-18T06:34:03,42.805,6.029,0.032,-0.03,-0.009,102.0,102.0,101.0,13.4,1505.2,327.9,-0.7,1.8,2470.733,13.28,0.043,133.1
2022-01-18T06:37:03,42.805,6.029,0.043,-0.05,-0.04,102.0,101.0,101.0,13.3,1505.2,329.4,-0.8,1.8,2470.746,13.28,0.065,139.3
2022-01-18T06:40:03,42.805,6.029,0.037,-0.024,-0.05,102.0,101.0,101.0,13.4,1505.2,327.1,-0.7,1.8,2470.771,13.28,0.044,123.0
2022-01-18T06:43:03,42.805,6.029,0.038,-0.039,-0.017,102.0,102.0,101.0,13.4,1505.2,328.7,-0.8,1.8,2470.744,13.28,0.054,135.7
2022-01-18T06:46:03,42.805,6.029,0.03,-0.023,-0.013,102.0,101.0,101.0,13.4,1505.2,328.0,-0.7,1.8,2470.753,13.28,0.037,127.5
2022-01-18T06:49:03,42.805,6.029,0.031,-0.032,0.008,103.0,101.0,101.0,13.3,1505.2,327.5,-0.7,1.8,2470.728,13.28,0.044,135.9
2022-01-18T06:52:03,42.805,6.029,0.034,-0.024,-0.006,101.0,101.0,101.0,13.4,1505.2,326.4,-0.8,1.8,2470.7,13.28,0.041,125.2
2022-01-18T06:55:03,42.805,6.029,0.036,-0.053,-0.045,102.0,101.0,101.0,13.4,1505.2,331.3,-0.7,1.8,2470.754,13.28,0.064,145.8
2022-01-18T06:58:03,42.805,6.029,0.041,-0.041,-0.007,103.0,101.0,101.0,13.4,1505.2,324.6,-0.8,1.8,2470.78,13.28,0.057,135.0
2022-01-18T07:04:03,42.805,6.029,0.045,-0.023,-0.016,103.0,101.0,101.0,13.3,1505.2,326.2,-0.8,1.9,2470.79,13.28,0.05,117.1
2022-01-18T07:07:03,42.805,6.029,0.05,-0.03,-0.019,102.0,101.0,101.0,13.4,1505.2,328.4,-0.8,1.8,2470.771,13.28,0.058,121.0
2022-01-18T07:10:03,42.805,6.029,0.017,-0.021,-0.034,101.0,102.0,101.0,13.3,1505.2,327.5,-0.8,1.8,2470.756,13.28,0.027,141.0
2022-01-18T07:13:03,42.805,6.029,0.046,-0.019,0.005,101.0,104.0,99.0,13.4,1505.2,327.1,-0.7,1.8,2470.783,13.28,0.049,112.4
2022-01-18T07:16:03,42.805,6.029,0.041,-0.053,-0.015,102.0,101.0,100.0,13.3,1505.2,329.6,-0.7,1.8,2470.794,13.28,0.067,142.3
2022-01-18T07:19:03,42.805,6.029,0.028,-0.03,-0.008,101.0,103.0,100.0,13.4,1505.2,330.5,-0.8,1.8,2470.794,13.28,0.041,137.0
2022-01-18T07:22:03,42.805,6.029,0.028,-0.024,0.0,101.0,100.0,101.0,13.4,1505.2,325.6,-0.7,1.8,2470.783,13.28,0.036,130.6
2022-01-18T07:25:03,42.805,6.029,0.026,-0.029,-0.019,102.0,102.0,101.0,13.3,1505.2,327.0,-0.8,1.8,2470.81,13.28,0.038,138.1
2022-01-18T07:28:03,42.805,6.029,0.039,-0.039,-0.013,101.0,102.0,101.0,13.3,1505.2,327.0,-0.8,1.8,2470.812,13.28,0.055,135.0
2022-01-18T07:31:03,42.805,6.029,0.014,-0.025,0.001,103.0,100.0,101.0,13.4,1505.2,326.2,-0.8,1.8,2470.762,13.28,0.028,150.7
2022-01-18T07:34:03,42.805,6.029,0.011,-0.024,-0.042,101.0,101.0,101.0,13.4,1505.2,327.5,-0.7,1.8,2470.779,13.28,0.026,155.4
2022-01-18T07:37:03,42.805,6.029,0.037,-0.033,-0.025,102.0,101.0,101.0,13.4,1505.2,325.8,-0.7,1.8,2470.798,13.28,0.049,131.7
2022-01-18T07:40:03,42.805,6.029,0.031,-0.046,-0.03,101.0,102.0,101.0,13.3,1505.2,328.8,-0.8,1.8,2470.849,13.28,0.055,146.0
2022-01-18T07:43:03,42.805,6.029,0.043,-0.034,-0.03,102.0,101.0,100.0,13.3,1505.2,328.6,-0.8,1.8,2470.792,13.28,0.054,128.3
2022-01-18T07:46:03,42.805,6.029,0.013,-0.029,-0.013,102.0,102.0,100.0,13.4,1505.2,325.1,-0.8,1.8,2470.847,13.28,0.031,155.9
2022-01-18T07:49:03,42.805,6.029,0.027,-0.027,-0.031,101.0,101.0,101.0,13.3,1505.2,328.9,-0.8,1.8,2470.802,13.28,0.038,135.0
2022-01-18T07:52:03,42.805,6.029,0.029,-0.027,0.014,102.0,101.0,101.0,13.3,1505.2,331.9,-0.7,1.8,2470.811,13.28,0.039,133.0
2022-01-18T07:55:03,42.805,6.029,0.029,-0.036,-0.027,100.0,103.0,101.0,13.4,1505.2,329.9,-0.7,1.8,2470.822,13.28,0.046,141.1
2022-01-18T07:58:03,42.805,6.029,0.033,-0.028,0.013,100.0,103.0,101.0,13.4,1505.2,325.4,-0.8,1.8,2470.81,13.28,0.043,130.3
2022-01-18T08:04:03,42.805,6.029,0.024,-0.033,-0.028,101.0,101.0,101.0,13.3,1505.2,327.0,-0.8,1.8,2470.892,13.28,0.04,144.0
2022-01-18T08:07:03,42.805,6.029,0.027,-0.042,-0.023,102.0,101.0,101.0,13.4,1505.2,331.0,-0.7,1.8,2470.867,13.28,0.049,147.3
2022-01-18T08:10:03,42.805,6.029,0.038,-0.03,-0.027,101.0,101.0,101.0,13.4,1505.2,324.1,-0.8,1.8,2470.88,13.28,0.048,128.3
2022-01-18T08:13:03,42.805,6.029,0.052,-0.013,0.018,101.0,101.0,101.0,13.3,1505.2,326.3,-0.7,1.8,2470.869,13.28,0.053,104.0
2022-01-18T08:16:03,42.805,6.029,0.025,-0.028,-0.007,102.0,101.0,101.0,13.4,1505.2,331.6,-0.7,1.8,2470.867,13.28,0.037,138.2
2022-01-18T08:19:03,42.805,6.029,0.034,-0.013,-0.003,103.0,102.0,100.0,13.4,1505.2,328.6,-0.8,1.8,2470.841,13.28,0.036,110.9
2022-01-18T08:22:03,42.805,6.029,0.017,-0.007,-0.004,101.0,101.0,101.0,13.3,1505.2,326.5,-0.8,1.8,2470.844,13.28,0.018,112.4
2022-01-18T08:25:03,42.805,6.029,0.022,-0.034,-0.021,102.0,101.0,101.0,13.4,1505.2,326.3,-0.8,1.8,2470.807,13.28,0.04,147.1
2022-01-18T08:28:03,42.805,6.029,0.025,-0.038,-0.017,101.0,102.0,101.0,13.4,1505.2,325.7,-0.7,1.8,2470.854,13.28,0.045,146.7
2022-01-18T08:31:03,42.805,6.029,0.037,-0.029,0.013,103.0,102.0,100.0,13.3,1505.2,326.2,-0.7,1.8,2470.849,13.28,0.047,128.1
2022-01-18T08:34:03,42.805,6.029,0.017,-0.026,0.01,102.0,102.0,102.0,13.3,1505.2,326.0,-0.8,1.8,2470.862,13.28,0.031,146.8
2022-01-18T08:37:03,42.805,6.029,0.017,-0.027,-0.023,101.0,102.0,100.0,13.3,1505.2,330.3,-0.7,1.8,2470.843,13.28,0.031,147.8
2022-01-18T08:40:03,42.805,6.029,0.026,-0.037,-0.036,100.0,101.0,101.0,13.4,1505.2,331.7,-0.8,1.9,2470.858,13.28,0.045,144.9
2022-01-18T08:43:03,42.805,6.029,0.026,-0.018,0.02,103.0,101.0,100.0,13.4,1505.2,330.4,-0.7,1.8,2470.838,13.28,0.031,124.7
2022-01-18T08:46:03,42.805,6.029,0.015,-0.02,-0.018,100.0,102.0,102.0,13.4,1505.2,330.4,-0.7,1.8,2470.875,13.28,0.025,143.1
2022-01-18T08:49:03,42.805,6.029,0.004,-0.038,-0.016,102.0,101.0,101.0,13.4,1505.2,331.2,-0.8,1.8,2470.905,13.28,0.038,174.0
2022-01-18T08:52:03,42.805,6.029,0.02,-0.021,-0.042,101.0,101.0,100.0,13.3,1505.2,326.0,-0.8,1.8,2470.863,13.28,0.028,136.4
2022-01-18T08:55:03,42.805,6.029,0.023,-0.032,-0.006,102.0,101.0,101.0,13.3,1505.2,330.6,-0.8,1.8,2470.856,13.28,0.039,144.3
2022-01-18T08:58:03,42.805,6.029,0.027,-0.041,-0.017,102.0,103.0,100.0,13.4,1505.2,330.7,-0.8,1.8,2470.888,13.28,0.049,146.6
2022-01-18T09:04:03,42.805,6.029,0.02,-0.013,0.015,102.0,102.0,101.0,13.3,1505.2,324.0,-0.8,1.8,2470.911,13.28,0.023,123.0
2022-01-18T09:07:03,42.805,6.029,0.019,-0.023,-0.029,102.0,102.0,101.0,13.4,1505.2,326.9,-0.8,1.8,2470.857,13.28,0.029,140.4
2022-01-18T09:10:03,42.805,6.029,0.009,-0.011,0.005,102.0,103.0,101.0,13.3,1505.2,326.7,-0.8,1.8,2470.865,13.28,0.014,140.7
2022-01-18T09:13:03,42.805,6.029,-0.001,-0.026,-0.038,103.0,102.0,99.0,13.4,1505.2,326.3,-0.8,1.8,2470.849,13.28,0.026,182.2
2022-01-18T09:16:03,42.805,6.029,0.017,-0.024,-0.002,103.0,101.0,101.0,13.4,1505.2,326.3,-0.8,1.8,2470.866,13.28,0.029,144.7
2022-01-18T09:19:03,42.805,6.029,0.016,-0.027,-0.01,101.0,102.0,100.0,13.4,1505.2,331.3,-0.7,1.8,2470.877,13.28,0.031,149.3
2022-01-18T09:22:03,42.805,6.029,0.026,-0.003,-0.028,103.0,101.0,100.0,13.4,1505.2,324.9,-0.7,1.8,2470.872,13.28,0.026,96.6
2022-01-18T09:25:03,42.805,6.029,0.011,-0.004,-0.01,102.0,101.0,101.0,13.4,1505.2,330.6,-0.8,1.9,2470.864,13.28,0.011,110.0
2022-01-18T09:28:03,42.805,6.029,0.009,-0.021,-0.004,102.0,101.0,101.0,13.4,1505.2,323.5,-0.8,1.8,2470.876,13.28,0.022,156.8
2022-01-18T09:31:03,42.805,6.029,0.028,-0.019,0.001,103.0,102.0,100.0,13.4,1505.2,328.7,-0.8,1.8,2470.879,13.28,0.033,124.2
2022-01-18T09:34:03,42.805,6.029,0.021,-0.027,-0.018,102.0,102.0,100.0,13.4,1505.2,331.6,-0.8,1.8,2470.882,13.28,0.034,142.1
2022-01-18T09:37:03,42.805,6.029,0.016,-0.007,-0.001,102.0,102.0,101.0,13.3,1505.2,331.0,-0.7,1.8,2470.869,13.28,0.017,113.6
2022-01-18T09:40:03,42.805,6.029,0.021,-0.019,0.007,102.0,102.0,102.0,13.3,1505.2,326.7,-0.8,1.8,2470.877,13.28,0.028,132.1
2022-01-18T09:43:03,42.805,6.029,0.029,-0.044,-0.029,101.0,100.0,101.0,13.4,1505.2,325.6,-0.7,1.8,2470.85,13.28,0.052,146.6
2022-01-18T09:46:03,42.805,6.029,0.028,-0.029,-0.027,104.0,102.0,100.0,13.3,1505.2,326.5,-0.7,1.8,2470.853,13.28,0.04,136.0
2022-01-18T09:49:03,42.805,6.029,0.014,-0.041,-0.076,101.0,102.0,100.0,13.3,1505.2,324.8,-0.7,1.8,2470.846,13.28,0.043,161.1
2022-01-18T09:52:03,42.805,6.029,0.0,-0.027,-0.042,102.0,102.0,101.0,13.4,1505.2,328.3,-0.8,1.8,2470.841,13.28,0.026,180.0
2022-01-18T09:55:03,42.805,6.029,0.011,-0.016,-0.047,103.0,101.0,101.0,13.4,1505.2,329.3,-0.7,1.8,2470.868,13.28,0.019,145.5